Year,Month,Day,Hour,Minute,Value (Times are PST for temperature in C)
2013,08,22,00,00,13.80
2013,08,22,00,01,13.80
2013,08,22,00,02,13.80
2013,08,22,00,03,13.70
2013,08,22,00,04,13.70
2013,08,22,00,05,13.70
2013,08,22,00,06,13.60
2013,08,22,00,07,13.60
2013,08,22,00,08,13.60
2013,08,22,00,09,13.60
2013,08,22,00,10,13.50
2013,08,22,00,11,13.50
2013,08,22,00,12,13.50
2013,08,22,00,13,13.40
2013,08,22,00,14,13.40
2013,08,22,00,15,13.40
2013,08,22,00,16,13.40
2013,08,22,00,17,13.30
2013,08,22,00,18,13.30
2013,08,22,00,19,13.30
2013,08,22,00,20,13.20
2013,08,22,00,21,13.20
2013,08,22,00,22,13.20
2013,08,22,00,23,13.20
2013,08,22,00,24,13.10
2013,08,22,00,25,13.10
2013,08,22,00,26,13.10
2013,08,22,00,27,13.10
2013,08,22,00,28,13.00
2013,08,22,00,29,13.00
2013,08,22,00,30,12.90
2013,08,22,00,31,12.90
2013,08,22,00,32,12.90
2013,08,22,00,33,12.90
2013,08,22,00,34,12.90
2013,08,22,00,35,12.90
2013,08,22,00,36,13.00
2013,08,22,00,37,13.00
2013,08,22,00,38,13.00
2013,08,22,00,39,13.00
2013,08,22,00,40,12.90
2013,08,22,00,41,12.90
2013,08,22,00,42,12.90
2013,08,22,00,43,12.90
2013,08,22,00,44,12.90
2013,08,22,00,45,12.90
2013,08,22,00,46,12.90
2013,08,22,00,47,12.90
2013,08,22,00,48,12.90
2013,08,22,00,49,12.90
2013,08,22,00,50,12.90
2013,08,22,00,51,12.90
2013,08,22,00,52,12.90
2013,08,22,00,53,12.80
2013,08,22,00,54,12.80
2013,08,22,00,55,12.80
2013,08,22,00,56,12.80
2013,08,22,00,57,12.80
2013,08,22,00,58,12.80
2013,08,22,00,59,12.80
2013,08,22,01,00,12.80
2013,08,22,01,01,12.70
2013,08,22,01,02,12.70
2013,08,22,01,03,12.70
2013,08,22,01,04,12.70
2013,08,22,01,05,12.70
2013,08,22,01,06,12.70
2013,08,22,01,07,12.70
2013,08,22,01,08,12.70
2013,08,22,01,09,12.70
2013,08,22,01,10,12.70
2013,08,22,01,11,12.60
2013,08,22,01,12,12.60
2013,08,22,01,13,12.60
2013,08,22,01,14,12.60
2013,08,22,01,15,12.60
2013,08,22,01,16,12.50
2013,08,22,01,17,12.50
2013,08,22,01,18,12.50
2013,08,22,01,19,12.50
2013,08,22,01,20,12.40
2013,08,22,01,21,12.40
2013,08,22,01,22,12.40
2013,08,22,01,23,12.40
2013,08,22,01,24,12.40
2013,08,22,01,25,12.40
2013,08,22,01,26,12.30
2013,08,22,01,27,12.30
2013,08,22,01,28,12.30
2013,08,22,01,29,12.30
2013,08,22,01,30,12.30
2013,08,22,01,31,12.30
2013,08,22,01,32,12.30
2013,08,22,01,33,12.30
2013,08,22,01,34,12.30
2013,08,22,01,35,12.30
2013,08,22,01,36,12.30
2013,08,22,01,37,12.20
2013,08,22,01,38,12.20
2013,08,22,01,39,12.20
2013,08,22,01,40,12.20
2013,08,22,01,41,12.20
2013,08,22,01,42,12.10
2013,08,22,01,43,12.10
2013,08,22,01,44,12.10
2013,08,22,01,45,12.10
2013,08,22,01,46,12.00
2013,08,22,01,47,12.00
2013,08,22,01,48,12.00
2013,08,22,01,49,12.00
2013,08,22,01,50,11.90
2013,08,22,01,51,11.90
2013,08,22,01,52,11.90
2013,08,22,01,53,11.90
2013,08,22,01,54,11.80
2013,08,22,01,55,11.80
2013,08,22,01,56,11.80
2013,08,22,01,57,11.80
2013,08,22,01,58,11.80
2013,08,22,01,59,11.80
2013,08,22,02,00,11.70
2013,08,22,02,01,11.70
2013,08,22,02,02,11.70
2013,08,22,02,03,11.70
2013,08,22,02,04,11.70
2013,08,22,02,05,11.60
2013,08,22,02,06,11.60
2013,08,22,02,07,11.60
2013,08,22,02,08,11.60
2013,08,22,02,09,11.60
2013,08,22,02,10,11.50
2013,08,22,02,11,11.50
2013,08,22,02,12,11.50
2013,08,22,02,13,11.50
2013,08,22,02,14,11.50
2013,08,22,02,15,11.40
2013,08,22,02,16,11.40
2013,08,22,02,17,11.40
2013,08,22,02,18,11.40
2013,08,22,02,19,11.40
2013,08,22,02,20,11.40
2013,08,22,02,21,11.30
2013,08,22,02,22,11.30
2013,08,22,02,23,11.30
2013,08,22,02,24,11.30
2013,08,22,02,25,11.30
2013,08,22,02,26,11.30
2013,08,22,02,27,11.30
2013,08,22,02,28,11.30
2013,08,22,02,29,11.30
2013,08,22,02,30,11.30
2013,08,22,02,31,11.30
2013,08,22,02,32,11.30
2013,08,22,02,33,11.30
2013,08,22,02,34,11.20
2013,08,22,02,35,11.20
2013,08,22,02,36,11.20
2013,08,22,02,37,11.20
2013,08,22,02,38,11.20
2013,08,22,02,39,11.20
2013,08,22,02,40,11.20
2013,08,22,02,41,11.20
2013,08,22,02,42,11.20
2013,08,22,02,43,11.10
2013,08,22,02,44,11.10
2013,08,22,02,45,11.20
2013,08,22,02,46,11.20
2013,08,22,02,47,11.20
2013,08,22,02,48,11.20
2013,08,22,02,49,11.20
2013,08,22,02,50,11.20
2013,08,22,02,51,11.20
2013,08,22,02,52,11.20
2013,08,22,02,53,11.30
2013,08,22,02,54,11.30
2013,08,22,02,55,11.30
2013,08,22,02,56,11.30
2013,08,22,02,57,11.30
2013,08,22,02,58,11.30
2013,08,22,02,59,11.30
2013,08,22,03,00,11.30
2013,08,22,03,01,11.30
2013,08,22,03,02,11.30
2013,08,22,03,03,11.30
2013,08,22,03,04,11.30
2013,08,22,03,05,11.30
2013,08,22,03,06,11.30
2013,08,22,03,07,11.30
2013,08,22,03,08,11.40
2013,08,22,03,09,11.40
2013,08,22,03,10,11.40
2013,08,22,03,11,11.40
2013,08,22,03,12,11.40
2013,08,22,03,13,11.40
2013,08,22,03,14,11.40
2013,08,22,03,15,11.40
2013,08,22,03,16,11.40
2013,08,22,03,17,11.40
2013,08,22,03,18,11.40
2013,08,22,03,19,11.40
2013,08,22,03,20,11.40
2013,08,22,03,21,11.40
2013,08,22,03,22,11.40
2013,08,22,03,23,11.40
2013,08,22,03,24,11.40
2013,08,22,03,25,11.40
2013,08,22,03,26,11.40
2013,08,22,03,27,11.40
2013,08,22,03,28,11.30
2013,08,22,03,29,11.30
2013,08,22,03,30,11.30
2013,08,22,03,31,11.30
2013,08,22,03,32,11.30
2013,08,22,03,33,11.30
2013,08,22,03,34,11.20
2013,08,22,03,35,11.20
2013,08,22,03,36,11.20
2013,08,22,03,37,11.10
2013,08,22,03,38,11.10
2013,08,22,03,39,11.10
2013,08,22,03,40,11.10
2013,08,22,03,41,11.00
2013,08,22,03,42,11.10
2013,08,22,03,43,11.10
2013,08,22,03,44,11.10
2013,08,22,03,45,11.10
2013,08,22,03,46,11.10
2013,08,22,03,47,11.10
2013,08,22,03,48,11.10
2013,08,22,03,49,11.10
2013,08,22,03,50,11.10
2013,08,22,03,51,11.10
2013,08,22,03,52,11.10
2013,08,22,03,53,11.10
2013,08,22,03,54,11.10
2013,08,22,03,55,11.10
2013,08,22,03,56,11.10
2013,08,22,03,57,11.10
2013,08,22,03,58,11.10
2013,08,22,03,59,11.10
2013,08,22,04,00,11.10
2013,08,22,04,01,11.10
2013,08,22,04,02,11.10
2013,08,22,04,03,11.10
2013,08,22,04,04,11.00
2013,08,22,04,05,11.00
2013,08,22,04,06,11.00
2013,08,22,04,07,11.00
2013,08,22,04,08,11.00
2013,08,22,04,09,11.00
2013,08,22,04,10,10.90
2013,08,22,04,11,11.00
2013,08,22,04,12,11.00
2013,08,22,04,13,11.00
2013,08,22,04,14,11.00
2013,08,22,04,15,11.00
2013,08,22,04,16,11.00
2013,08,22,04,17,11.00
2013,08,22,04,18,11.00
2013,08,22,04,19,11.00
2013,08,22,04,20,11.00
2013,08,22,04,21,11.10
2013,08,22,04,22,11.10
2013,08,22,04,23,11.10
2013,08,22,04,24,11.10
2013,08,22,04,25,11.10
2013,08,22,04,26,11.10
2013,08,22,04,27,11.10
2013,08,22,04,28,11.10
2013,08,22,04,29,11.10
2013,08,22,04,30,11.10
2013,08,22,04,31,11.10
2013,08,22,04,32,11.00
2013,08,22,04,33,11.00
2013,08,22,04,34,11.00
2013,08,22,04,35,11.00
2013,08,22,04,36,11.00
2013,08,22,04,37,10.90
2013,08,22,04,38,10.90
2013,08,22,04,39,10.90
2013,08,22,04,40,10.90
2013,08,22,04,41,10.90
2013,08,22,04,42,10.80
2013,08,22,04,43,10.80
2013,08,22,04,44,10.80
2013,08,22,04,45,10.80
2013,08,22,04,46,10.80
2013,08,22,04,47,10.80
2013,08,22,04,48,10.70
2013,08,22,04,49,10.70
2013,08,22,04,50,10.70
2013,08,22,04,51,10.70
2013,08,22,04,52,10.70
2013,08,22,04,53,10.70
2013,08,22,04,54,10.70
2013,08,22,04,55,10.70
2013,08,22,04,56,10.70
2013,08,22,04,57,10.70
2013,08,22,04,58,10.70
2013,08,22,04,59,10.70
2013,08,22,05,00,10.70
2013,08,22,05,01,10.70
2013,08,22,05,02,10.70
2013,08,22,05,03,10.70
2013,08,22,05,04,10.70
2013,08,22,05,05,10.70
2013,08,22,05,06,10.70
2013,08,22,05,07,10.70
2013,08,22,05,08,10.70
2013,08,22,05,09,10.70
2013,08,22,05,10,10.70
2013,08,22,05,11,10.70
2013,08,22,05,12,10.70
2013,08,22,05,13,10.70
2013,08,22,05,14,10.70
2013,08,22,05,15,10.60
2013,08,22,05,16,10.60
2013,08,22,05,17,10.60
2013,08,22,05,18,10.60
2013,08,22,05,19,10.60
2013,08,22,05,20,10.60
2013,08,22,05,21,10.60
2013,08,22,05,22,10.60
2013,08,22,05,23,10.60
2013,08,22,05,24,10.60
2013,08,22,05,25,10.60
2013,08,22,05,26,10.60
2013,08,22,05,27,10.60
2013,08,22,05,28,10.60
2013,08,22,05,29,10.60
2013,08,22,05,30,10.60
2013,08,22,05,31,10.70
2013,08,22,05,32,10.70
2013,08,22,05,33,10.70
2013,08,22,05,34,10.70
2013,08,22,05,35,10.70
2013,08,22,05,36,10.70
2013,08,22,05,37,10.70
2013,08,22,05,38,10.70
2013,08,22,05,39,10.70
2013,08,22,05,40,10.70
2013,08,22,05,41,10.60
2013,08,22,05,42,10.60
2013,08,22,05,43,10.60
2013,08,22,05,44,10.60
2013,08,22,05,45,10.60
2013,08,22,05,46,10.60
2013,08,22,05,47,10.60
2013,08,22,05,48,10.60
2013,08,22,05,49,10.60
2013,08,22,05,50,10.70
2013,08,22,05,51,10.70
2013,08,22,05,52,10.70
2013,08,22,05,53,10.70
2013,08,22,05,54,10.70
2013,08,22,05,55,10.70
2013,08,22,05,56,10.70
2013,08,22,05,57,10.70
2013,08,22,05,58,10.70
2013,08,22,05,59,10.70
2013,08,22,06,00,10.70
2013,08,22,06,01,10.70
2013,08,22,06,02,10.70
2013,08,22,06,03,10.70
2013,08,22,06,04,10.70
2013,08,22,06,05,10.70
2013,08,22,06,06,10.60
2013,08,22,06,07,10.60
2013,08,22,06,08,10.60
2013,08,22,06,09,10.60
2013,08,22,06,10,10.60
2013,08,22,06,11,10.60
2013,08,22,06,12,10.60
2013,08,22,06,13,10.60
2013,08,22,06,14,10.60
2013,08,22,06,15,10.50
2013,08,22,06,16,10.50
2013,08,22,06,17,10.50
2013,08,22,06,18,10.50
2013,08,22,06,19,10.40
2013,08,22,06,20,10.40
2013,08,22,06,21,10.40
2013,08,22,06,22,10.40
2013,08,22,06,23,10.40
2013,08,22,06,24,10.40
2013,08,22,06,25,10.40
2013,08,22,06,26,10.40
2013,08,22,06,27,10.40
2013,08,22,06,28,10.40
2013,08,22,06,29,10.40
2013,08,22,06,30,10.50
2013,08,22,06,31,10.50
2013,08,22,06,32,10.60
2013,08,22,06,33,10.70
2013,08,22,06,34,10.70
2013,08,22,06,35,10.80
2013,08,22,06,36,10.80
2013,08,22,06,37,10.90
2013,08,22,06,38,10.90
2013,08,22,06,39,10.90
2013,08,22,06,40,11.00
2013,08,22,06,41,11.00
2013,08,22,06,42,11.00
2013,08,22,06,43,10.90
2013,08,22,06,44,10.90
2013,08,22,06,45,10.90
2013,08,22,06,46,10.90
2013,08,22,06,47,10.90
2013,08,22,06,48,10.80
2013,08,22,06,49,10.80
2013,08,22,06,50,10.80
2013,08,22,06,51,10.80
2013,08,22,06,52,10.80
2013,08,22,06,53,10.80
2013,08,22,06,54,10.80
2013,08,22,06,55,10.80
2013,08,22,06,56,10.80
2013,08,22,06,57,10.80
2013,08,22,06,58,10.80
2013,08,22,06,59,10.90
2013,08,22,07,00,10.90
2013,08,22,07,01,10.90
2013,08,22,07,02,11.00
2013,08,22,07,03,11.00
2013,08,22,07,04,11.00
2013,08,22,07,05,11.00
2013,08,22,07,06,11.10
2013,08,22,07,07,11.10
2013,08,22,07,08,11.10
2013,08,22,07,09,11.10
2013,08,22,07,10,11.10
2013,08,22,07,11,11.10
2013,08,22,07,12,11.20
2013,08,22,07,13,11.20
2013,08,22,07,14,11.20
2013,08,22,07,15,11.20
2013,08,22,07,16,11.20
2013,08,22,07,17,11.20
2013,08,22,07,18,11.20
2013,08,22,07,19,11.20
2013,08,22,07,20,11.30
2013,08,22,07,21,11.30
2013,08,22,07,22,11.30
2013,08,22,07,23,11.40
2013,08,22,07,24,11.40
2013,08,22,07,25,11.40
2013,08,22,07,26,11.50
2013,08,22,07,27,11.50
2013,08,22,07,28,11.60
2013,08,22,07,29,11.60
2013,08,22,07,30,11.60
2013,08,22,07,31,11.70
2013,08,22,07,32,11.70
2013,08,22,07,33,11.80
2013,08,22,07,34,11.80
2013,08,22,07,35,11.90
2013,08,22,07,36,11.90
2013,08,22,07,37,12.00
2013,08,22,07,38,12.00
2013,08,22,07,39,12.10
2013,08,22,07,40,12.20
2013,08,22,07,41,12.20
2013,08,22,07,42,12.30
2013,08,22,07,43,12.30
2013,08,22,07,44,12.40
2013,08,22,07,45,12.50
2013,08,22,07,46,12.60
2013,08,22,07,47,12.60
2013,08,22,07,48,12.70
2013,08,22,07,49,12.80
2013,08,22,07,50,12.90
2013,08,22,07,51,12.90
2013,08,22,07,52,13.00
2013,08,22,07,53,13.10
2013,08,22,07,54,13.20
2013,08,22,07,55,13.30
2013,08,22,07,56,13.40
2013,08,22,07,57,13.50
2013,08,22,07,58,13.60
2013,08,22,07,59,13.70
2013,08,22,08,00,13.80
2013,08,22,08,01,13.90
2013,08,22,08,02,14.00
2013,08,22,08,03,14.10
2013,08,22,08,04,14.20
2013,08,22,08,05,14.30
2013,08,22,08,06,14.40
2013,08,22,08,07,14.50
2013,08,22,08,08,14.60
2013,08,22,08,09,14.70
2013,08,22,08,10,14.80
2013,08,22,08,11,14.90
2013,08,22,08,12,15.00
2013,08,22,08,13,15.10
2013,08,22,08,14,15.20
2013,08,22,08,15,15.30
2013,08,22,08,16,15.40
2013,08,22,08,17,15.50
2013,08,22,08,18,15.60
2013,08,22,08,19,15.80
2013,08,22,08,20,15.90
2013,08,22,08,21,16.00
2013,08,22,08,22,16.10
2013,08,22,08,23,16.20
2013,08,22,08,24,16.30
2013,08,22,08,25,16.50
2013,08,22,08,26,16.60
2013,08,22,08,27,16.70
2013,08,22,08,28,16.80
2013,08,22,08,29,16.90
2013,08,22,08,30,17.00
2013,08,22,08,31,17.10
2013,08,22,08,32,17.10
2013,08,22,08,33,17.20
2013,08,22,08,34,17.30
2013,08,22,08,35,17.40
2013,08,22,08,36,17.40
2013,08,22,08,37,17.50
2013,08,22,08,38,17.50
2013,08,22,08,39,17.50
2013,08,22,08,40,17.50
2013,08,22,08,41,17.50
2013,08,22,08,42,17.50
2013,08,22,08,43,17.50
2013,08,22,08,44,17.60
2013,08,22,08,45,17.60
2013,08,22,08,46,17.60
2013,08,22,08,47,17.60
2013,08,22,08,48,17.60
2013,08,22,08,49,17.70
2013,08,22,08,50,17.70
2013,08,22,08,51,17.70
2013,08,22,08,52,17.80
2013,08,22,08,53,17.80
2013,08,22,08,54,17.90
2013,08,22,08,55,17.90
2013,08,22,08,56,18.00
2013,08,22,08,57,18.00
2013,08,22,08,58,18.00
2013,08,22,08,59,18.00
2013,08,22,09,00,18.00
2013,08,22,09,01,18.00
2013,08,22,09,02,18.00
2013,08,22,09,03,18.00
2013,08,22,09,04,18.00
2013,08,22,09,05,17.90
2013,08,22,09,06,17.90
2013,08,22,09,07,17.90
2013,08,22,09,08,17.80
2013,08,22,09,09,17.80
2013,08,22,09,10,17.80
2013,08,22,09,11,17.80
2013,08,22,09,12,17.70
2013,08,22,09,13,17.70
2013,08,22,09,14,17.70
2013,08,22,09,15,17.70
2013,08,22,09,16,17.70
2013,08,22,09,17,17.70
2013,08,22,09,18,17.70
2013,08,22,09,19,17.80
2013,08,22,09,20,17.80
2013,08,22,09,21,17.80
2013,08,22,09,22,17.80
2013,08,22,09,23,17.80
2013,08,22,09,24,17.80
2013,08,22,09,25,17.80
2013,08,22,09,26,17.80
2013,08,22,09,27,17.80
2013,08,22,09,28,17.80
2013,08,22,09,29,17.80
2013,08,22,09,30,17.70
2013,08,22,09,31,17.70
2013,08,22,09,32,17.70
2013,08,22,09,33,17.70
2013,08,22,09,34,17.70
2013,08,22,09,35,17.80
2013,08,22,09,36,17.80
2013,08,22,09,37,17.80
2013,08,22,09,38,17.80
2013,08,22,09,39,17.80
2013,08,22,09,40,17.80
2013,08,22,09,41,17.70
2013,08,22,09,42,17.70
2013,08,22,09,43,17.70
2013,08,22,09,44,17.70
2013,08,22,09,45,17.70
2013,08,22,09,46,17.70
2013,08,22,09,47,17.70
2013,08,22,09,48,17.80
2013,08,22,09,49,17.80
2013,08,22,09,50,17.90
2013,08,22,09,51,17.90
2013,08,22,09,52,18.00
2013,08,22,09,53,18.10
2013,08,22,09,54,18.10
2013,08,22,09,55,18.20
2013,08,22,09,56,18.30
2013,08,22,09,57,18.30
2013,08,22,09,58,18.40
2013,08,22,09,59,18.40
2013,08,22,10,00,18.50
2013,08,22,10,01,18.50
2013,08,22,10,02,18.60
2013,08,22,10,03,18.60
2013,08,22,10,04,18.60
2013,08,22,10,05,18.60
2013,08,22,10,06,18.60
2013,08,22,10,07,18.60
2013,08,22,10,08,18.50
2013,08,22,10,09,18.50
2013,08,22,10,10,18.50
2013,08,22,10,11,18.40
2013,08,22,10,12,18.40
2013,08,22,10,13,18.40
2013,08,22,10,14,18.30
2013,08,22,10,15,18.30
2013,08,22,10,16,18.30
2013,08,22,10,17,18.20
2013,08,22,10,18,18.20
2013,08,22,10,19,18.20
2013,08,22,10,20,18.20
2013,08,22,10,21,18.10
2013,08,22,10,22,18.10
2013,08,22,10,23,18.00
2013,08,22,10,24,18.00
2013,08,22,10,25,18.00
2013,08,22,10,26,18.00
2013,08,22,10,27,18.00
2013,08,22,10,28,18.00
2013,08,22,10,29,18.00
2013,08,22,10,30,18.10
2013,08,22,10,31,18.20
2013,08,22,10,32,18.20
2013,08,22,10,33,18.30
2013,08,22,10,34,18.40
2013,08,22,10,35,18.50
2013,08,22,10,36,18.60
2013,08,22,10,37,18.70
2013,08,22,10,38,18.80
2013,08,22,10,39,18.90
2013,08,22,10,40,19.00
2013,08,22,10,41,19.00
2013,08,22,10,42,19.10
2013,08,22,10,43,19.20
2013,08,22,10,44,19.30
2013,08,22,10,45,19.40
2013,08,22,10,46,19.60
2013,08,22,10,47,19.80
2013,08,22,10,48,19.90
2013,08,22,10,49,20.10
2013,08,22,10,50,20.30
2013,08,22,10,51,20.40
2013,08,22,10,52,20.60
2013,08,22,10,53,20.80
2013,08,22,10,54,20.90
2013,08,22,10,55,21.00
2013,08,22,10,56,21.10
2013,08,22,10,57,21.20
2013,08,22,10,58,21.20
2013,08,22,10,59,21.20
2013,08,22,11,00,21.20
2013,08,22,11,01,21.20
2013,08,22,11,02,21.20
2013,08,22,11,03,21.20
2013,08,22,11,04,21.20
2013,08,22,11,05,21.20
2013,08,22,11,06,21.20
2013,08,22,11,07,21.20
2013,08,22,11,08,21.20
2013,08,22,11,09,21.10
2013,08,22,11,10,21.00
2013,08,22,11,11,20.80
2013,08,22,11,12,20.80
2013,08,22,11,13,20.80
2013,08,22,11,14,20.80
2013,08,22,11,15,20.80
2013,08,22,11,16,20.70
2013,08,22,11,17,20.60
2013,08,22,11,18,20.60
2013,08,22,11,19,20.60
2013,08,22,11,20,20.60
2013,08,22,11,21,20.60
2013,08,22,11,22,20.60
2013,08,22,11,23,20.70
2013,08,22,11,24,20.70
2013,08,22,11,25,20.70
2013,08,22,11,26,20.80
2013,08,22,11,27,20.80
2013,08,22,11,28,20.90
2013,08,22,11,29,21.00
2013,08,22,11,30,21.10
2013,08,22,11,31,21.20
2013,08,22,11,32,21.30
2013,08,22,11,33,21.40
2013,08,22,11,34,21.50
2013,08,22,11,35,21.60
2013,08,22,11,36,21.60
2013,08,22,11,37,21.70
2013,08,22,11,38,21.80
2013,08,22,11,39,21.80
2013,08,22,11,40,21.80
2013,08,22,11,41,21.80
2013,08,22,11,42,21.80
2013,08,22,11,43,21.80
2013,08,22,11,44,21.70
2013,08,22,11,45,21.70
2013,08,22,11,46,21.70
2013,08,22,11,47,21.70
2013,08,22,11,48,21.70
2013,08,22,11,49,21.70
2013,08,22,11,50,21.70
2013,08,22,11,51,21.70
2013,08,22,11,52,21.70
2013,08,22,11,53,21.70
2013,08,22,11,54,21.70
2013,08,22,11,55,21.70
2013,08,22,11,56,21.70
2013,08,22,11,57,21.60
2013,08,22,11,58,21.60
2013,08,22,11,59,21.50
2013,08,22,12,00,21.50
2013,08,22,12,01,21.40
2013,08,22,12,02,21.40
2013,08,22,12,03,21.40
2013,08,22,12,04,21.30
2013,08,22,12,05,21.30
2013,08,22,12,06,21.20
2013,08,22,12,07,21.20
2013,08,22,12,08,21.10
2013,08,22,12,09,21.00
2013,08,22,12,10,21.00
2013,08,22,12,11,20.90
2013,08,22,12,12,20.90
2013,08,22,12,13,20.90
2013,08,22,12,14,20.80
2013,08,22,12,15,20.80
2013,08,22,12,16,20.80
2013,08,22,12,17,20.70
2013,08,22,12,18,20.70
2013,08,22,12,19,20.70
2013,08,22,12,20,20.70
2013,08,22,12,21,20.70
2013,08,22,12,22,20.70
2013,08,22,12,23,20.70
2013,08,22,12,24,20.60
2013,08,22,12,25,20.60
2013,08,22,12,26,20.60
2013,08,22,12,27,20.60
2013,08,22,12,28,20.60
2013,08,22,12,29,20.60
2013,08,22,12,30,20.60
2013,08,22,12,31,20.60
2013,08,22,12,32,20.60
2013,08,22,12,33,20.60
2013,08,22,12,34,20.60
2013,08,22,12,35,20.60
2013,08,22,12,36,20.60
2013,08,22,12,37,20.60
2013,08,22,12,38,20.60
2013,08,22,12,39,20.60
2013,08,22,12,40,20.50
2013,08,22,12,41,20.50
2013,08,22,12,42,20.50
2013,08,22,12,43,20.60
2013,08,22,12,44,20.60
2013,08,22,12,45,20.70
2013,08,22,12,46,20.80
2013,08,22,12,47,20.90
2013,08,22,12,48,21.00
2013,08,22,12,49,21.00
2013,08,22,12,50,21.10
2013,08,22,12,51,21.10
2013,08,22,12,52,21.10
2013,08,22,12,53,21.10
2013,08,22,12,54,21.10
2013,08,22,12,55,21.00
2013,08,22,12,56,21.00
2013,08,22,12,57,20.90
2013,08,22,12,58,20.90
2013,08,22,12,59,20.90
2013,08,22,13,00,20.90
2013,08,22,13,01,20.90
2013,08,22,13,02,20.90
2013,08,22,13,03,20.90
2013,08,22,13,04,21.00
2013,08,22,13,05,21.00
2013,08,22,13,06,21.10
2013,08,22,13,07,21.10
2013,08,22,13,08,21.20
2013,08,22,13,09,21.20
2013,08,22,13,10,21.30
2013,08,22,13,11,21.30
2013,08,22,13,12,21.30
2013,08,22,13,13,21.30
2013,08,22,13,14,21.30
2013,08,22,13,15,21.20
2013,08,22,13,16,21.20
2013,08,22,13,17,21.20
2013,08,22,13,18,21.20
2013,08,22,13,19,21.10
2013,08,22,13,20,21.10
2013,08,22,13,21,21.10
2013,08,22,13,22,21.00
2013,08,22,13,23,21.00
2013,08,22,13,24,21.00
2013,08,22,13,25,20.90
2013,08,22,13,26,20.90
2013,08,22,13,27,20.80
2013,08,22,13,28,20.80
2013,08,22,13,29,20.80
2013,08,22,13,30,20.70
2013,08,22,13,31,20.70
2013,08,22,13,32,20.70
2013,08,22,13,33,20.70
2013,08,22,13,34,20.70
2013,08,22,13,35,20.70
2013,08,22,13,36,20.70
2013,08,22,13,37,20.70
2013,08,22,13,38,20.80
2013,08,22,13,39,20.80
2013,08,22,13,40,20.90
2013,08,22,13,41,21.00
2013,08,22,13,42,21.20
2013,08,22,13,43,21.20
2013,08,22,13,44,21.30
2013,08,22,13,45,21.40
2013,08,22,13,46,21.50
2013,08,22,13,47,21.50
2013,08,22,13,48,21.60
2013,08,22,13,49,21.60
2013,08,22,13,50,21.60
2013,08,22,13,51,21.70
2013,08,22,13,52,21.70
2013,08,22,13,53,21.80
2013,08,22,13,54,21.80
2013,08,22,13,55,21.80
2013,08,22,13,56,21.90
2013,08,22,13,57,21.90
2013,08,22,13,58,22.00
2013,08,22,13,59,22.10
2013,08,22,14,00,22.10
2013,08,22,14,01,22.20
2013,08,22,14,02,22.30
2013,08,22,14,03,22.30
2013,08,22,14,04,22.30
2013,08,22,14,05,22.40
2013,08,22,14,06,22.40
2013,08,22,14,07,22.40
2013,08,22,14,08,22.50
2013,08,22,14,09,22.60
2013,08,22,14,10,22.70
2013,08,22,14,11,22.70
2013,08,22,14,12,22.70
2013,08,22,14,13,22.60
2013,08,22,14,14,22.60
2013,08,22,14,15,22.50
2013,08,22,14,16,22.40
2013,08,22,14,17,22.40
2013,08,22,14,18,22.30
2013,08,22,14,19,22.30
2013,08,22,14,20,22.30
2013,08,22,14,21,22.20
2013,08,22,14,22,22.20
2013,08,22,14,23,22.20
2013,08,22,14,24,22.20
2013,08,22,14,25,22.20
2013,08,22,14,26,22.20
2013,08,22,14,27,22.20
2013,08,22,14,28,22.20
2013,08,22,14,29,22.20
2013,08,22,14,30,22.20
2013,08,22,14,31,22.00
2013,08,22,14,32,21.90
2013,08,22,14,33,21.60
2013,08,22,14,34,21.50
2013,08,22,14,35,21.40
2013,08,22,14,36,21.30
2013,08,22,14,37,21.20
2013,08,22,14,38,21.10
2013,08,22,14,39,21.10
2013,08,22,14,40,20.90
2013,08,22,14,41,20.70
2013,08,22,14,42,20.60
2013,08,22,14,43,20.60
2013,08,22,14,44,20.60
2013,08,22,14,45,20.60
2013,08,22,14,46,20.60
2013,08,22,14,47,20.50
2013,08,22,14,48,20.50
2013,08,22,14,49,20.60
2013,08,22,14,50,20.60
2013,08,22,14,51,20.70
2013,08,22,14,52,20.70
2013,08,22,14,53,20.80
2013,08,22,14,54,20.90
2013,08,22,14,55,20.90
2013,08,22,14,56,21.00
2013,08,22,14,57,21.10
2013,08,22,14,58,21.10
2013,08,22,14,59,21.10
2013,08,22,15,00,21.20
2013,08,22,15,01,21.10
2013,08,22,15,02,21.10
2013,08,22,15,03,21.00
2013,08,22,15,04,20.90
2013,08,22,15,05,20.90
2013,08,22,15,06,20.90
2013,08,22,15,07,20.80
2013,08,22,15,08,20.80
2013,08,22,15,09,20.80
2013,08,22,15,10,20.90
2013,08,22,15,11,20.90
2013,08,22,15,12,21.00
2013,08,22,15,13,21.00
2013,08,22,15,14,21.10
2013,08,22,15,15,21.20
2013,08,22,15,16,21.20
2013,08,22,15,17,21.30
2013,08,22,15,18,21.30
2013,08,22,15,19,21.40
2013,08,22,15,20,21.40
2013,08,22,15,21,21.40
2013,08,22,15,22,21.50
2013,08,22,15,23,21.50
2013,08,22,15,24,21.60
2013,08,22,15,25,21.60
2013,08,22,15,26,21.70
2013,08,22,15,27,21.70
2013,08,22,15,28,21.70
2013,08,22,15,29,21.80
2013,08,22,15,30,21.80
2013,08,22,15,31,21.80
2013,08,22,15,32,21.80
2013,08,22,15,33,21.80
2013,08,22,15,34,21.80
2013,08,22,15,35,21.80
2013,08,22,15,36,21.80
2013,08,22,15,37,21.80
2013,08,22,15,38,21.80
2013,08,22,15,39,21.60
2013,08,22,15,40,21.50
2013,08,22,15,41,21.40
2013,08,22,15,42,21.30
2013,08,22,15,43,21.30
2013,08,22,15,44,21.20
2013,08,22,15,45,21.20
2013,08,22,15,46,21.20
2013,08,22,15,47,21.10
2013,08,22,15,48,21.10
2013,08,22,15,49,21.10
2013,08,22,15,50,21.00
2013,08,22,15,51,21.00
2013,08,22,15,52,20.90
2013,08,22,15,53,20.90
2013,08,22,15,54,20.90
2013,08,22,15,55,21.00
2013,08,22,15,56,21.00
2013,08,22,15,57,21.10
2013,08,22,15,58,21.10
2013,08,22,15,59,21.20
2013,08,22,16,00,21.30
2013,08,22,16,01,21.40
2013,08,22,16,02,21.50
2013,08,22,16,03,21.70
2013,08,22,16,04,21.80
2013,08,22,16,05,22.00
2013,08,22,16,06,22.10
2013,08,22,16,07,22.30
2013,08,22,16,08,22.40
2013,08,22,16,09,22.60
2013,08,22,16,10,22.80
2013,08,22,16,11,22.90
2013,08,22,16,12,23.00
2013,08,22,16,13,23.10
2013,08,22,16,14,23.20
2013,08,22,16,15,23.30
2013,08,22,16,16,23.30
2013,08,22,16,17,23.30
2013,08,22,16,18,23.30
2013,08,22,16,19,23.30
2013,08,22,16,20,23.30
2013,08,22,16,21,23.30
2013,08,22,16,22,23.30
2013,08,22,16,23,23.30
2013,08,22,16,24,23.20
2013,08,22,16,25,23.20
2013,08,22,16,26,23.10
2013,08,22,16,27,23.10
2013,08,22,16,28,23.10
2013,08,22,16,29,23.20
2013,08,22,16,30,23.20
2013,08,22,16,31,23.20
2013,08,22,16,32,23.20
2013,08,22,16,33,23.20
2013,08,22,16,34,23.30
2013,08,22,16,35,23.30
2013,08,22,16,36,23.40
2013,08,22,16,37,23.40
2013,08,22,16,38,23.40
2013,08,22,16,39,23.30
2013,08,22,16,40,23.30
2013,08,22,16,41,23.20
2013,08,22,16,42,23.20
2013,08,22,16,43,23.30
2013,08,22,16,44,23.30
2013,08,22,16,45,23.30
2013,08,22,16,46,23.30
2013,08,22,16,47,23.30
2013,08,22,16,48,23.30
2013,08,22,16,49,23.30
2013,08,22,16,50,23.20
2013,08,22,16,51,23.20
2013,08,22,16,52,23.20
2013,08,22,16,53,23.10
2013,08,22,16,54,23.10
2013,08,22,16,55,23.10
2013,08,22,16,56,23.10
2013,08,22,16,57,23.10
2013,08,22,16,58,23.10
2013,08,22,16,59,23.10
2013,08,22,17,00,23.10
2013,08,22,17,01,23.20
2013,08,22,17,02,23.20
2013,08,22,17,03,23.20
2013,08,22,17,04,23.20
2013,08,22,17,05,23.20
2013,08,22,17,06,23.20
2013,08,22,17,07,23.10
2013,08,22,17,08,23.00
2013,08,22,17,09,22.90
2013,08,22,17,10,22.80
2013,08,22,17,11,22.70
2013,08,22,17,12,22.60
2013,08,22,17,13,22.60
2013,08,22,17,14,22.50
2013,08,22,17,15,22.50
2013,08,22,17,16,22.60
2013,08,22,17,17,22.60
2013,08,22,17,18,22.60
2013,08,22,17,19,22.70